Location: Newark
(51.2625°N, 13.3939°E)
Time: 21:30:47
(UTC+00:00)

Transit 2A - All Passes

Search period start: 15 November 2019 00:00
Search period end: 25 November 2019 00:00
Orbit: 601 x 957 km, 66.7° (Epoch: 14 November)

Date Brightness Start Highest point End Pass type
(mag) Time Alt. Az. Time Alt. Az. Time Alt. Az.
15 Nov - 10:49:54 10° SE 10:51:54 12° ESE 10:53:51 10° E daylight
15 Nov - 12:29:22 10° SSW 12:34:22 74° SE 12:38:57 10° NE daylight
15 Nov - 14:13:54 10° W 14:17:55 26° NW 14:21:44 10° NNE daylight
15 Nov - 16:00:52 10° NNW 16:02:37 12° N 16:04:20 10° NNE visible
15 Nov - 17:45:26 10° NNW 17:47:45 14° NNE 17:50:02 10° NE visible
15 Nov - 19:28:00 10° NNW 19:32:07 38° NE 19:36:14 10° ESE visible
15 Nov - 21:11:15 10° NW 21:15:13 35° WSW 21:19:15 10° S night (unlit)
16 Nov - 11:55:25 10° SSW 12:00:17 52° ESE 12:04:46 10° NE daylight
16 Nov - 13:39:15 10° WSW 13:43:37 32° NW 13:47:43 10° NNE daylight
16 Nov - 15:25:58 10° NW 15:28:07 13° NNW 15:30:14 10° NNE daylight
16 Nov - 17:11:22 10° NNW 17:13:16 12° NNE 17:15:08 10° NE visible
16 Nov - 18:53:58 10° NNW 18:57:51 30° NE 19:01:43 10° E visible
16 Nov - 20:36:58 10° NW 20:41:11 51° WSW 20:45:29 10° SSE night (unlit)
17 Nov - 11:21:39 10° S 11:26:14 37° ESE 11:30:30 10° NE daylight
17 Nov - 13:04:44 10° WSW 13:09:22 42° NW 13:13:41 10° NNE daylight
17 Nov - 14:51:03 10° NW 14:53:39 15° NNW 14:56:11 10° NNE daylight
17 Nov - 16:37:14 10° NNW 16:38:45 11° N 16:40:16 10° NNE visible
17 Nov - 18:19:57 10° NNW 18:23:32 24° NNE 18:27:05 10° E visible
17 Nov - 20:02:46 10° NW 20:07:07 74° SW 20:11:33 10° SSE visible
17 Nov - 21:48:32 10° W 21:49:27 11° WSW 21:50:22 10° WSW night (unlit)
18 Nov - 10:48:05 10° S 10:52:14 27° ESE 10:56:07 10° ENE daylight
18 Nov - 12:30:20 10° SW 12:35:09 56° NW 12:39:38 10° NNE daylight
18 Nov - 14:16:09 10° WNW 14:19:13 17° NNW 14:22:10 10° NNE daylight
18 Nov - 16:02:55 10° NNW 16:04:14 11° N 16:05:33 10° NNE visible
18 Nov - 17:45:57 10° NNW 17:49:10 19° NNE 17:52:22 10° ENE visible
18 Nov - 19:28:38 10° NW 19:33:00 78° NE 19:37:26 10° SE visible
18 Nov - 21:12:55 10° WNW 21:15:34 16° WSW 21:18:15 10° SSW night (unlit)
19 Nov - 10:14:50 10° SSE 10:18:17 19° ESE 10:21:33 10° ENE daylight
19 Nov - 11:56:03 10° SW 12:00:59 76° NW 12:05:32 10° NE daylight
19 Nov - 13:41:20 10° WNW 13:44:49 20° NNW 13:48:10 10° NNE daylight
19 Nov - 15:28:22 10° NNW 15:29:43 11° N 15:31:03 10° NNE daylight
19 Nov - 17:11:57 10° NNW 17:14:46 16° NNE 17:17:33 10° ENE visible
19 Nov - 18:54:32 10° NNW 18:58:50 56° NE 19:03:11 10° SE visible
19 Nov - 20:38:13 10° WNW 20:41:39 23° WSW 20:45:09 10° SSW night (unlit)
20 Nov - 09:42:06 10° SE 09:44:22 13° ESE 09:46:33 10° E daylight
20 Nov - 11:21:55 10° SSW 11:26:52 79° SE 11:31:25 10° NE daylight
20 Nov - 13:06:34 10° W 13:10:27 24° NW 13:14:10 10° NNE daylight
20 Nov - 14:53:36 10° NNW 14:55:12 12° N 14:56:47 10° NNE daylight
20 Nov - 16:37:56 10° NNW 16:40:19 14° NNE 16:42:40 10° NE visible
20 Nov - 18:20:29 10° NNW 18:24:38 41° NE 18:28:49 10° ESE visible
20 Nov - 20:03:46 10° NW 20:07:41 33° WSW 20:11:39 10° S visible
21 Nov - 10:47:56 10° SSW 10:52:46 56° ESE 10:57:15 10° NE daylight
21 Nov - 12:31:55 10° W 12:36:09 30° NW 12:40:09 10° NNE daylight
21 Nov - 14:18:42 10° NW 14:20:42 13° NNW 14:22:40 10° NNE daylight
21 Nov - 16:03:54 10° NNW 16:05:50 13° NNE 16:07:47 10° NE visible
21 Nov - 17:46:27 10° NNW 17:50:22 31° NE 17:54:19 10° ESE visible
21 Nov - 19:29:28 10° NW 19:33:39 47° WSW 19:37:57 10° SSE visible
22 Nov - 10:14:07 10° S 10:18:43 39° ESE 10:23:00 10° NE daylight
22 Nov - 11:57:22 10° WSW 12:01:53 39° NW 12:06:07 10° NNE daylight
22 Nov - 13:43:46 10° NW 13:46:13 14° NNW 13:48:37 10° NNE daylight
22 Nov - 15:29:47 10° NNW 15:31:20 12° N 15:32:53 10° NNE daylight
22 Nov - 17:12:26 10° NNW 17:16:04 25° NE 17:19:43 10° E visible
22 Nov - 18:55:16 10° NW 18:59:36 69° SW 19:04:02 10° SSE visible
23 Nov - 09:40:31 10° S 09:44:43 28° ESE 09:48:38 10° ENE daylight
23 Nov - 11:22:56 10° WSW 11:27:40 52° NW 11:32:04 10° NNE daylight
23 Nov - 13:08:52 10° WNW 13:11:47 16° NNW 13:14:36 10° NNE daylight
23 Nov - 14:55:32 10° NNW 14:56:49 11° N 14:58:06 10° NNE daylight
23 Nov - 16:38:25 10° NNW 16:41:42 20° NNE 16:44:59 10° ENE visible
23 Nov - 18:21:07 10° NW 18:25:29 84° NE 18:29:57 10° SE visible
23 Nov - 20:05:35 10° WNW 20:08:01 15° WSW 20:10:30 10° SW visible
24 Nov - 09:07:12 10° SSE 09:10:45 20° ESE 09:14:06 10° ENE daylight
24 Nov - 10:48:38 10° SW 10:53:29 71° NW 10:58:00 10° NE daylight
24 Nov - 12:34:01 10° WNW 12:37:22 19° NNW 12:40:36 10° NNE daylight
24 Nov - 14:21:02 10° NNW 14:22:18 11° N 14:23:32 10° NNE daylight
24 Nov - 16:04:25 10° NNW 16:07:18 17° NNE 16:10:12 10° ENE visible
24 Nov - 17:47:00 10° NNW 17:51:20 60° NE 17:55:44 10° SE visible
24 Nov - 19:30:47 10° WNW 19:34:06 21° WSW 19:37:29 10° SSW visible
